Regional Weather Roundup
Issued by NWS Kansas City/Pleasant Hill, MO

Home | Current Version | Previous Version | Graphics & Text | Print | Product List | Glossary Off
Versions: 1 2 3 4 5 6 7 8 9 10 11 12 13 14 15 16 17 18 19 20 21 22 23 24 25 26 27 28

000
ASUS43 KEAX 201910
RWREAX

WEATHER ROUNDUP FOR EASTERN KANSAS AND NORTHWEST MISSOURI
NATIONAL WEATHER SERVICE KANSAS CITY/PLEASANT HILL MO
100 PM CST MON NOV 20 2017

KSZ040-057-103>105-MOZ028-029-037-043-202000-
...KANSAS CITY METROPOLITAN AREA...

CITY           SKY/WX    TMP DP  RH WIND       PRES   REMARKS
K.C. INTL      MOSUNNY   60  29  30 SW26G37   29.79F
K.C. DOWNTOWN  SUNNY     62  28  27 SW21G38   29.81F
LEES SUMMIT    SUNNY     60  27  28 SW25G39   29.83F
OLATHE - IXD   SUNNY     59  29  31 S28G37    29.82F
OLATHE - OJC   SUNNY     58  28  32 SW16G33   29.82F
LAWRENCE       SUNNY     61  28  28 S20G35    29.81F

$$

MOZ001>008-011>017-020>025-030>033-038>040-044>046-053-054-202000-
...NORTHERN AND CENTRAL MISSOURI...

CITY           SKY/WX    TMP DP  RH WIND       PRES   REMARKS
ST. JOSEPH     SUNNY     60  26  27 SW28G36   29.75F
MOSBY          CLEAR     61  27  27 SW24G30   29.80F
WARRENSBURG    SUNNY     59  30  33 S21G32    29.87F
WHITEMAN AFB   MOSUNNY   59  29  31 SW31G43   29.83F
CLINTON        SUNNY     59  32  36 MISG      29.91F
SEDALIA        SUNNY     60  32  34 S20G32    29.90F
WARSAW         NOT AVBL
CHILLICOTHE      N/A     61  28  28 SW16G35   29.79F
KIRKSVILLE     SUNNY     59  31  34 SW23G41   29.80F

$$

MOZ041-047>049-056>058-063>065-088>090-097-202000-
...EASTERN AND SOUTHERN MISSOURI...

CITY           SKY/WX    TMP DP  RH WIND       PRES   REMARKS
ST. LOUIS INTL MOSUNNY   59  26  28 SW16G25   29.96F
SPIRIT OF STL  MOSUNNY   60  26  27 S15G25    29.95F
COLUMBIA       SUNNY     61  29  29 S23G32    29.90F
JEFFERSON CITY SUNNY     62  25  24 S18G29    29.91F
ROLLA          SUNNY     60  26  27 S16G28    29.96F
OSAGE BEACH    SUNNY     61  26  26 SW21G30   29.94F
SPRINGFIELD    SUNNY     60  29  30 S20G31    29.96F
BRANSON        MOSUNNY   61  23  23 S12G17    30.02F
JOPLIN         SUNNY     60  28  29 SW28G37   29.95F
WEST PLAINS    SUNNY     55  24  30 S14       30.04F

$$

IAZ060-094-KSZ022-034>040-054-083-096-NEZ052-066-093-202000-
...KANSAS...SOUTHEAST NEBRASKA AND IOWA...

CITY           SKY/WX    TMP DP  RH WIND       PRES   REMARKS
TOPEKA         SUNNY     63  26  24 SW15G31   29.78F
MANHATTAN      SUNNY     62  25  24 SW25G33   29.75F
EMPORIA        SUNNY     61  27  27 S30G39    29.82F
CHANUTE        SUNNY     61  28  28 SW24G33   29.90F
WICHITA        MOSUNNY   62  26  25 S28G36    29.83F
OMAHA          CLOUDY    56  26  31 S14       29.62F
LINCOLN        CLOUDY    58  24  27 SW20      29.65F
FALLS CITY     SUNNY     61  25  25 S24G32    29.71F
LAMONI         SUNNY     59  27  29 S28G36    29.70F
DES MOINES     PTSUNNY   61  25  25 S21G36    29.64F

$$





USA.gov is the U.S. government's official web portal to all federal, state and local government web resources and services.